Regional Weather Roundup
Issued by NWS

Home | Current Version | Previous Version | Graphics & Text | Print | Product List | Glossary On
Versions: 1 2 3 4 5 6 7 8 9 10 11 12 13 14 15 16 17 18 19 20 21 22 23 24 25 26 27 28 29 30 31 32 33 34 35 36 37 38 39 40 41 42 43 44 45 46 47 48 49 50
000
ASUS43 KIND 170400
RWRIN

WEATHER ROUNDUP FOR INDIANA
NATIONAL WEATHER SERVICE INDIANAPOLIS IN
1200 AM EDT THU AUG 17 2017

NOTE: "FAIR" INDICATES FEW OR NO CLOUDS BELOW 12,000 FEET WITH NO
SIGNIFICANT WEATHER AND/OR OBSTRUCTIONS TO VISIBILITY.

* - STATION DOES NOT REPORT WEATHER SUCH AS PRECIPITATION OR FOG.

+ - STATION NOT QUALITY CONTROLLED BY THE NATIONAL WEATHER SERVICE.
    USE DATA WITH CAUTION...ESPECIALLY DEWPOINT AND RELATIVE
    HUMIDITY OBSERVATIONS.

INZ001>003-010>013-019-020-170500-
NORTHWEST INDIANA

CITY           SKY/WX    TMP DP  RH WIND       PRES   REMARKS
MICHIGAN CITY+ CLOUDY    77  70  78 S3        29.88F
MONTICELLO +   CLOUDY    78  73  85 SE6       29.90F
RENSSELAER +   CLOUDY    77  68  73 SE9       29.89F

$$

LMZ046-743>745-170500-
SOUTHERN LAKE MICHIGAN

STATION/POSITION TIME  TEMP    WIND        PRES    WAVE
                       AIR SEA DIR/SP/G            HT
                 (UTC) (F)     (DEG/KT/KT) (MB)    (FT)
BURNS HARBOR     0340   80     180/  8/ 15 1011.5F
MICHIGAN CITY    0300   80     150/  7/  8   N/A
5NW MICH CITY    0350   78 75  150/  8/ 10   N/A     1

$$

INZ004-005-014>016-021>024-170500-
NORTH CENTRAL INDIANA

CITY           SKY/WX    TMP DP  RH WIND       PRES   REMARKS
GOSHEN         CLOUDY    78  67  68 SE5       29.93F
SOUTH BEND     CLOUDY    78  71  79 SE10      29.90F
WARSAW +       MOCLDY    77  70  78 CALM      29.93F

$$

INZ006>009-017-018-025>027-170500-
NORTHEAST INDIANA

CITY           SKY/WX    TMP DP  RH WIND       PRES   REMARKS
FORT WAYNE     CLOUDY    76  68  76 SE6       29.94F
KENDALLVILLE + PTCLDY    73  68  83 SE6       29.96S

$$

INZ028-029-035-036-043>045-051>053-170500-
WEST CENTRAL INDIANA

CITY           SKY/WX    TMP DP  RH WIND       PRES   REMARKS
LAFAYETTE      CLOUDY    77  72  84 S7        29.89F
TERRE HAUTE    CLOUDY    74  71  91 S6        29.92F

$$

INZ030>032-037>040-046>048-054>057-064-065-170500-
CENTRAL INDIANA

CITY           SKY/WX    TMP DP  RH WIND       PRES   REMARKS
GREENWOOD *+   CLOUDY    78  70  76 S6        29.96F
INDIANAPOLIS   CLOUDY    78  72  81 S9        29.93F
-EAGLE CREEK   CLOUDY    80  71  74 MISG      29.94F
KOKOMO +       MOCLDY    76  72  87 S6        29.94F
MT COMFORT *+  CLOUDY    75  72  88 S3        29.96F
SHELBYVILLE    CLOUDY    79  71  76 S6        29.95F

$$

INZ033-034-041-042-049-050-058-059-170500-
EAST CENTRAL INDIANA

CITY           SKY/WX    TMP DP  RH WIND       PRES   REMARKS
MUNCIE         PTCLDY    82  69  64 S8        29.95F
RICHMOND +     CLOUDY    72  70  94 SE7       30.00S FOG

$$

INZ060-061-067>069-081>083-085>088-170500-
SOUTHWEST INDIANA

CITY           SKY/WX    TMP DP  RH WIND       PRES   REMARKS
EVANSVILLE     CLOUDY    77  73  87 CALM      29.95F
HUNTINGBURG +  MOCLDY    77  74  90 S5        29.96

$$

INZ062-063-066-070>080-084-089>092-170500-
SOUTH CENTRAL AND SOUTHEAST INDIANA

CITY           SKY/WX    TMP DP  RH WIND       PRES   REMARKS
BLOOMINGTON    LGT RAIN  78  72  81 S7        29.95F
MADISON *+     PTCLDY    73  70  88 SE5       30.01S
SEYMOUR +      CLEAR     77  72  83 S6        29.97S

$$





USA.gov is the U.S. government's official web portal to all federal, state and local government web resources and services.